Location: Eckley
(40.9930°N, 75.8630°W)
Time: 01:25:30
(UTC-04:00)

Daily predictions for brighter satellites

Satellite Brightness Start Highest point End
(mag) Time Altitude Azimuth Time Altitude Azimuth Time Altitude Azimuth
H-2A R/B 4.4 00:04:41 14° W 00:04:41 14° W 00:06:34 10° WNW
Terra 4.1 00:05:46 19° WNW 00:05:46 19° WNW 00:07:49 10° NW
COSMOS 2428 4.1 00:05:02 31° WNW 00:05:31 32° WNW 00:10:36 10° N
NOSS 3-1 (A) 4.3 00:10:33 43° NNE 00:10:33 43° NNE 00:14:53 10° NNE
ATLAS 2AS CENTAUR R/B 4.4 00:13:05 24° ENE 00:13:05 24° ENE 00:16:53 10° NE
SL-16 R/B 3.8 00:33:20 28° NE 00:33:20 28° NE 00:35:58 10° NNE
Cosmos 2333 Rocket 3.7 00:46:51 32° NW 00:46:51 32° NW 00:51:20 10° N
CZ-4C R/B 3.3 00:39:23 10° NW 00:44:55 55° WNW 00:44:55 55° WNW
ATLAS 3B R/B 3.8 00:44:11 10° NNW 00:50:24 35° NE 00:51:14 34° ENE
Cosmos 2237 Rocket 3.6 00:56:36 33° NNW 00:56:36 33° NNW 01:00:39 10° N
Cosmos 2278 Rocket 4.2 00:54:00 10° NW 00:56:09 21° WNW 00:56:09 21° WNW
CZ-2C R/B 4.1 01:14:07 10° N 01:17:28 32° NNW 01:17:28 32° NNW
USA 215 4.0 01:17:06 10° NE 01:21:27 44° ENE 01:21:27 44° ENE
USA 267 4.2 01:49:42 10° E 01:55:47 43° NNE 02:01:53 10° NW
Cosmos 2341 Rocket 4.5 01:51:36 10° N 01:56:23 56° N 01:56:23 56° N
ATLAS CENTAUR R/B 4.2 02:00:34 16° N 02:00:34 16° N 02:01:38 10° N
Cosmos 2369 Rocket 3.2 01:52:57 10° NNW 01:56:56 42° NNE 01:56:56 42° NNE
ATLAS 2AS CENTAUR R/B 3.1 02:00:28 65° WNW 02:00:40 65° NW 02:08:45 10° NNE
SL-16 R/B 4.1 02:15:11 21° NW 02:15:11 21° NW 02:19:11 10° N
Resurs 1-4 Rocket 4.3 02:13:41 10° NE 02:16:45 16° E 02:16:58 16° E
CZ-2D R/B 4.2 02:16:38 10° NE 02:19:56 16° E 02:20:13 16° E
Cosmos 1943 Rocket 2.9 02:19:45 10° NNW 02:25:05 48° NE 02:25:05 48° NE
BREEZE M DEB (TANK) 4.4 02:04:13 10° WNW 02:27:51 89° SSW 02:30:16 48° SE
ATLAS 3B R/B 3.7 02:34:50 10° NW 02:38:26 31° WNW 02:38:26 31° WNW
Aureole 1 Rocket 4.3 02:52:29 46° E 02:52:29 46° E 02:56:26 10° NNE
SL-16 R/B 3.3 02:49:25 31° ESE 02:51:57 47° ENE 02:57:49 10° N
Cosmos 1680 Rocket 4.3 02:53:52 45° E 02:53:52 45° E 02:58:27 10° NNE
USA 238 DEB 4.1 02:46:44 10° NW 02:52:03 49° WNW 02:52:03 49° WNW
USA 238 4.1 02:46:50 10° NW 02:52:12 50° WNW 02:52:12 50° WNW
CBERS-1 4.4 02:48:40 10° NNE 02:52:55 59° NE 02:52:55 59° NE
IRS-1C 4.5 02:50:32 10° NNE 02:55:27 59° E 02:55:27 59° E
Cosmos 2218 Rocket 4.2 02:56:41 10° NNW 03:02:00 56° WNW 03:02:00 56° WNW
IRS-1D 4.4 02:58:50 10° NNE 03:03:47 43° E 03:04:06 42° ESE
USA 215 4.2 03:00:23 10° NE 03:06:21 39° NNW 03:08:48 29° WNW
Cosmos 2366 rocket 4.1 03:03:17 10° NNW 03:09:00 59° WNW 03:09:00 59° WNW
Cosmos 1656 Rocket 4.3 03:06:35 10° NNW 03:11:52 51° ENE 03:14:45 25° SE
Cosmos 1943 4.1 03:12:41 37° NW 03:12:41 37° NW 03:17:41 10° N
GEOS 3 Rocket 3.6 03:08:18 10° NE 03:13:30 80° ESE 03:13:30 80° ESE
Cosmos 1626 Rocket 4.4 03:15:42 47° N 03:15:42 47° N 03:18:53 10° N
Lacrosse 5 rocket 3.9 03:14:44 15° ESE 03:14:44 15° ESE 03:17:13 10° E
UNK 4.1 03:16:45 61° ENE 03:16:45 61° ENE 03:21:09 10° N
IRS-P3 4.5 03:13:46 10° N 03:18:31 53° NW 03:18:31 53° NW
ARIANE 5 R/B 2.9 03:13:58 10° NNE 03:19:08 56° E 03:19:42 53° SE
COSMOS 2455 3.4 03:13:29 10° NNW 03:19:25 58° ENE 03:25:20 10° SE
SL-08 R/B 4.4 03:22:01 34° NW 03:22:01 34° NW 03:24:53 10° NNW
Meteor 2-14 Rocket 4.3 03:15:38 10° NNW 03:21:45 71° W 03:21:59 71° WSW
Meteor 2-21 Rocket 4.4 03:17:20 10° NNW 03:23:24 64° W 03:23:27 64° W
Meteor 2-16 Rocket 4.2 03:17:21 10° N 03:23:27 78° W 03:24:01 72° SSW
NOSS 3-2 (C) 3.9 03:17:31 10° NW 03:25:06 89° ENE 03:33:18 10° SSE
Cosmos 923 Rocket 4.0 03:26:00 69° WNW 03:26:00 69° WNW 03:31:14 10° NNE
RESURS DK-1 3.2 03:28:13 48° ENE 03:28:13 48° ENE 03:31:38 10° NE
Cosmos 44 4.4 03:29:00 10° NNW 03:31:14 30° NNW 03:31:14 30° NNW
Cosmos 1602 Rocket 4.3 03:35:29 43° NW 03:35:29 43° NW 03:38:52 10° N
Cosmos 1805 4.1 03:30:52 10° N 03:34:41 46° E 03:34:50 46° E
USA 267 3.1 03:32:07 10° SE 03:38:36 65° SW 03:45:06 10° NW
Cosmos 1271 Rocket 4.0 03:35:21 10° N 03:38:52 37° ENE 03:39:35 33° ESE
NPP 4.3 03:36:00 10° N 03:40:58 39° WNW 03:41:02 39° WNW
Cosmos 2369 Rocket 4.3 03:38:02 10° NW 03:38:41 12° WNW 03:38:41 12° WNW
CENTAUR R/B 3.9 03:35:33 10° NNW 03:43:08 50° NE 03:51:14 10° ESE
Cosmos 192 4.2 03:44:35 69° S 03:45:10 82° ESE 03:50:07 10° NNE
COBE Rocket 3.9 03:41:28 10° NNE 03:46:35 79° ESE 03:47:37 56° S
Cosmos 1842 3.5 03:47:25 62° N 03:47:25 62° N 03:50:43 10° N
Cosmos 1766 4.3 03:43:46 10° NNW 03:46:21 36° NW 03:46:21 36° NW
Cosmos 724 4.2 03:42:24 10° NW 03:48:28 72° WSW 03:52:26 22° SSE
Tiangong 1 3.2 03:50:41 23° ENE 03:50:41 23° ENE 03:51:56 10° ENE
ADEOS Rocket 3.0 03:43:47 10° NNE 03:49:46 82° WNW 03:52:01 43° SSW
NOSS 3-4 (A) 3.7 03:49:10 44° WSW 03:50:51 58° NW 03:57:17 10° NNE
NOSS 3-4 (C) 3.7 03:49:15 45° WSW 03:50:57 58° NW 03:57:24 10° NNE
Nadezhda 3 Rocket 4.1 03:53:26 46° WSW 03:54:48 56° W 04:01:02 10° N
Meteor 1-22 Rocket 4.4 03:51:03 10° NNW 03:56:19 45° W 03:56:23 45° W
Resurs 1-4 Rocket 2.1 03:51:49 10° N 03:57:01 64° WNW 03:58:03 52° WSW
Abrixas 4.4 03:59:32 26° NNE 03:59:32 26° NNE 04:01:21 10° NE
COSMOS 2406 3.2 03:57:45 49° SW 03:59:22 78° WNW 04:05:10 10° NNE
CZ-2D R/B 2.2 03:55:10 10° N 04:00:25 61° WNW 04:01:33 49° WSW
Cosmos 1544 3.4 03:57:17 10° NNW 04:00:19 56° NNW 04:00:19 56° NNW
Cosmos 2112 Rocket 4.3 04:00:34 46° W 04:01:25 51° WNW 04:06:34 10° N
MOZ.5/SAFIR/RUBIN 5/SL-8 3.9 03:59:03 23° SSE 04:01:57 72° ENE 04:06:37 10° N
NOSS 3-2 (A) 4.3 04:00:06 10° NW 04:07:13 44° WSW 04:14:48 10° S
Cosmos 1943 Rocket 3.7 04:04:14 10° NW 04:06:33 19° WNW 04:06:33 19° WNW
NOSS 2-2 (C) 3.9 04:09:36 41° S 04:10:40 54° ESE 04:15:04 10° NE
Cosmos 1953 2.2 04:06:58 10° N 04:10:58 87° W 04:12:01 49° S
Cosmos 389 Rocket 4.1 04:08:58 10° N 04:12:21 35° ENE 04:15:41 10° SE
Delta 2 Rocket 4.4 04:14:25 23° SE 04:14:25 23° SE 04:16:22 10° ESE
Cosmos 1758 Rocket 3.4 04:15:54 45° SSW 04:17:12 78° W 04:21:35 10° N
Cosmos 1707 3.9 04:15:03 17° SSE 04:17:39 40° E 04:21:19 10° NNE
Cosmos 1624 Rocket 3.9 04:12:49 10° NNW 04:18:02 81° WSW 04:23:15 10° SSE
Cosmos 1470 3.3 04:16:11 10° N 04:20:01 59° E 04:23:46 11° SSE
USA 32 4.0 04:18:56 36° SSW 04:20:59 62° W 04:26:13 10° N
Landsat 4 4.1 04:18:37 10° SSE 04:22:15 62° ENE 04:25:57 10° N
Cosmos 1727 Rocket 4.2 04:16:46 12° S 04:22:25 70° E 04:28:33 10° NNE
Cosmos 1758 3.5 04:21:52 10° NNW 04:25:50 49° W 04:26:35 43° SW
Cosmos-2242 3.4 04:21:38 10° N 04:26:02 67° E 04:30:23 10° SSE
ADEOS 4.4 04:22:22 10° N 04:27:02 34° WNW 04:28:35 29° W
USA 161 1.6 04:27:46 59° WNW 04:27:46 59° WNW 04:30:26 10° NNW
UNKNOWN OBJECT B 3.2 04:26:46 10° N 04:30:35 46° WNW 04:31:32 38° WSW
Cosmos 2056 Rocket 3.4 04:25:45 10° NNW 04:31:03 66° WSW 04:36:15 10° S
SL-16 R/B 3.4 04:34:30 26° WSW 04:35:44 27° W 04:40:55 10° NW
Cosmos 921 Rocket 3.0 04:32:19 10° NNW 04:36:46 65° WSW 04:41:14 10° S
Cosmos 374 Rocket 4.1 04:34:30 10° NW 04:38:13 69° WSW 04:42:19 10° SSE
Cosmos 1953 Rocket 4.0 04:36:52 32° SW 04:38:21 43° WNW 04:42:38 10° N
Geosat FO 4.5 04:42:27 10° SSE 04:46:00 70° WSW 04:49:39 10° NNW
MOS 1 Rocket 3.2 04:42:11 10° N 04:46:25 58° WNW 04:49:12 21° SSW
Meteor 2-15 4.4 04:40:39 10° S 04:46:48 89° E 04:52:58 10° N
PSLV R/B 4.0 04:42:53 10° NNE 04:46:59 78° ESE 04:50:48 12° S
CZ-4B R/B 3.5 04:43:50 10° NNE 04:48:04 63° E 04:52:27 10° S
MOS 1-B 4.3 04:43:20 10° N 04:49:08 72° WNW 04:54:14 13° SSW
Cosmos 1378 3.3 04:48:40 11° S 04:52:19 73° E 04:56:03 10° NNE
Lacrosse 5 rocket 1.6 04:50:27 24° SW 04:53:17 80° NW 04:57:58 10° NE
SL-27 R/B 4.0 04:52:50 19° W 04:53:36 21° WNW 04:56:24 10° NNW
Meteor 2-15 Rocket 4.5 04:48:15 10° S 04:54:25 87° E 05:00:35 10° N
ARIANE 5 R/B 4.1 04:54:09 10° NNW 04:57:47 19° WNW 05:00:03 15° W
Cosmos 1459 Rocket 4.3 04:56:17 10° N 05:02:27 71° E 05:08:39 10° SSE
CZ-4B DEB 4.5 04:57:11 10° NNE 05:02:41 72° ESE 05:08:09 10° S
Cosmos 1605 Rocket 4.3 04:58:20 10° NNW 05:04:10 44° W 05:09:55 10° SSW
COSMOS 2455 3.9 05:00:20 10° NW 05:04:53 23° WSW 05:09:24 10° SSW
RESURS DK-1 4.4 05:04:08 12° W 05:05:58 15° NW 05:08:25 10° NNW
Cosmos 1452 Rocket 3.4 05:01:03 10° NNW 05:06:19 79° WSW 05:11:33 10° SSE
Okean O Rocket 1.6 05:01:52 10° N 05:06:20 83° WNW 05:10:44 10° SSW
ADEOS II 2.1 05:01:36 10° NNE 05:06:53 89° ESE 05:12:09 10° SSW
NOSS 2-2 (E) 4.3 05:04:42 18° WSW 05:07:23 39° NW 05:11:55 10° NNE
Cosmos 1733 3.9 05:05:17 10° NNW 05:08:42 32° W 05:11:58 11° SSW
Meteor 2-5 Rocket 3.7 05:03:23 10° SSW 05:09:02 72° W 05:14:51 10° N
Cosmos 1818 3.9 05:08:43 15° SW 05:13:05 54° NW 05:18:28 10° NNE
Cosmos 2278 3.7 05:08:40 10° NNW 05:14:25 83° WSW 05:20:07 10° SSE
COSMOS 2487 2.5 05:11:54 12° SSW 05:15:05 62° WNW 05:18:38 10° NNE
Cosmos 1697 Rocket 3.8 05:09:42 10° NNW 05:15:10 49° ENE 05:20:34 10° SE
Cosmos 468 4.5 05:12:16 10° SSW 05:17:28 83° WNW 05:22:44 10° NNE
Orbus 7S? 2.9 05:15:45 10° NW 05:18:50 67° NE 05:21:23 10° SE
EO 1 Del DPAF 3.2 05:15:12 10° SSE 05:19:02 86° WSW 05:22:56 10° NNW
SL-24 R/B 4.4 05:15:16 10° NNE 05:20:12 80° ESE 05:24:30 10° S
Cosmos 2369 3.7 05:15:22 10° NNW 05:21:07 75° WSW 05:26:49 10° SSE
Tiangong 1 0.8 05:22:11 10° WNW 05:25:01 84° NNE 05:27:52 10° ESE
Cosmos 1420 Rocket 4.0 05:19:42 10° NNW 05:25:03 83° WSW 05:30:20 10° SSE
Cosmos 1048 Rocket 4.0 05:25:35 10° SSW 05:30:44 89° ESE 05:35:54 10° NNE
Meteor 2-1 Rocket 4.3 05:25:48 10° N 05:31:28 88° E 05:37:13 10° S
Cosmos 2100 Rocket 4.0 05:27:24 10° NNW 05:33:29 61° W 05:39:32 10° S
CENTAUR R/B 3.4 05:26:26 10° NW 05:33:55 44° WSW 05:41:45 10° S
SOZ 4.1 05:32:39 10° WSW 05:34:50 74° NNW 05:37:16 10° NE
Cosmos 1000 Rocket 4.5 05:29:28 10° SSW 05:35:34 69° W 05:41:46 10° N
Cosmos 1269 Rocket 4.0 05:33:19 10° SSW 05:38:36 79° WNW 05:43:54 10° NNE
Cosmos 2082 Rocket 2.3 05:37:47 10° SSW 05:43:28 72° WNW 05:49:12 10° NNE
Cosmos 2173 Rocket 4.1 05:37:55 10° NNW 05:44:03 56° W 05:50:04 10° SSW
Cosmos 1980 Rocket 3.2 05:42:20 10° NNW 05:47:56 54° ENE 05:53:27 10° SE
